Time,TemperatureF,DewpointF,PressureIn,WindDirection,WindDirectionDegrees,WindSpeedMPH,WindSpeedGustMPH,Humidity,HourlyPrecipIn,Conditions,Clouds,dailyrainin,SoftwareType,DateUTC
2013-02-19 00:04:00,34.9,38.5,29.63,SW,214,8.0,16.0,33,0.00,,,0.04,meteohub,2013-02-19 06:04:00,
2013-02-19 00:09:00,34.5,38.7,29.63,WNW,301,6.0,16.0,33,0.00,,,0.00,meteohub,2013-02-19 06:09:00,
2013-02-19 00:14:00,34.3,38.7,29.63,NW,320,5.0,12.0,33,0.00,,,0.00,meteohub,2013-02-19 06:14:00,
2013-02-19 00:19:00,34.2,38.5,29.63,North,353,5.0,13.0,33,0.00,,,0.00,meteohub,2013-02-19 06:19:00,
2013-02-19 00:24:00,34.0,38.3,29.63,North,353,4.0,13.0,33,0.00,,,0.00,meteohub,2013-02-19 06:24:00,
2013-02-19 00:29:00,34.0,38.1,29.63,WNW,285,6.0,13.0,33,0.00,,,0.00,meteohub,2013-02-19 06:29:00,
2013-02-19 00:34:00,34.0,37.9,29.66,NW,308,3.0,12.0,33,0.00,,,0.00,meteohub,2013-02-19 06:34:00,
2013-02-19 00:39:00,34.0,37.8,29.66,WNW,291,6.0,9.0,33,0.00,,,0.00,meteohub,2013-02-19 06:39:00,
2013-02-19 00:45:00,34.0,37.8,29.66,SSE,158,3.0,9.0,33,0.00,,,0.00,meteohub,2013-02-19 06:45:00,
2013-02-19 00:50:00,34.2,38.5,29.69,South,181,3.0,9.0,34,0.00,,,0.00,meteohub,2013-02-19 06:50:00,
2013-02-19 00:55:00,34.2,38.3,29.69,South,188,6.0,15.0,34,0.00,,,0.00,meteohub,2013-02-19 06:55:00,
2013-02-19 01:00:00,34.0,38.1,29.69,WNW,295,3.0,15.0,34,0.00,,,0.00,meteohub,2013-02-19 07:00:00,
2013-02-19 01:05:00,33.8,38.1,29.72,SW,220,6.0,13.0,34,0.00,,,0.00,meteohub,2013-02-19 07:05:00,
2013-02-19 01:10:00,33.6,37.9,29.72,WSW,255,8.0,13.0,34,0.00,,,0.00,meteohub,2013-02-19 07:10:00,
2013-02-19 01:15:00,33.3,37.9,29.72,NNW,335,3.0,13.0,34,0.00,,,0.00,meteohub,2013-02-19 07:15:00,
2013-02-19 01:20:00,33.1,37.8,29.75,NNW,339,6.0,13.0,34,0.00,,,0.00,meteohub,2013-02-19 07:20:00,
2013-02-19 01:26:00,32.9,37.8,29.75,West,265,8.0,13.0,34,0.00,,,0.00,meteohub,2013-02-19 07:26:00,
2013-02-19 01:31:00,32.7,37.6,29.75,NNW,341,6.0,11.0,34,0.00,,,0.00,meteohub,2013-02-19 07:31:00,
2013-02-19 01:36:00,32.7,37.4,29.78,WNW,287,8.0,8.0,34,0.00,,,0.00,meteohub,2013-02-19 07:36:00,
2013-02-19 01:41:00,32.5,37.4,29.78,WNW,288,5.0,8.0,34,0.00,,,0.00,meteohub,2013-02-19 07:41:00,
2013-02-19 01:46:00,32.5,37.4,29.78,WNW,284,3.0,8.0,34,0.00,,,0.00,meteohub,2013-02-19 07:46:00,
2013-02-19 01:51:00,32.4,37.4,29.78,WNW,298,4.0,8.0,34,0.00,,,0.00,meteohub,2013-02-19 07:51:00,
2013-02-19 01:56:00,32.2,37.2,29.78,WNW,294,5.0,8.0,34,0.00,,,0.00,meteohub,2013-02-19 07:56:00,
2013-02-19 02:02:00,32.2,37.2,29.78,SSW,195,4.0,8.0,34,0.00,,,0.00,meteohub,2013-02-19 08:02:00,
2013-02-19 02:07:00,32.2,37.0,29.81,SSE,163,3.0,8.0,34,0.00,,,0.00,meteohub,2013-02-19 08:07:00,
2013-02-19 02:12:00,32.2,37.0,29.81,WSW,253,3.0,8.0,34,0.00,,,0.00,meteohub,2013-02-19 08:12:00,
2013-02-19 02:17:00,32.0,36.9,29.81,South,176,3.0,8.0,34,0.00,,,0.00,meteohub,2013-02-19 08:17:00,
2013-02-19 02:22:00,31.8,36.9,29.87,SSW,211,6.0,6.0,34,0.00,,,0.00,meteohub,2013-02-19 08:22:00,
2013-02-19 02:27:00,31.8,36.9,29.87,West,260,5.0,6.0,34,0.00,,,0.00,meteohub,2013-02-19 08:27:00,
2013-02-19 02:32:00,31.6,36.7,29.87,SE,125,7.0,7.0,34,0.00,,,0.00,meteohub,2013-02-19 08:32:00,
2013-02-19 02:38:00,31.5,36.5,29.87,North,350,4.0,10.0,34,0.00,,,0.00,meteohub,2013-02-19 08:38:00,
2013-02-19 02:43:00,31.5,36.5,29.87,SW,236,4.0,10.0,34,0.00,,,0.00,meteohub,2013-02-19 08:43:00,
2013-02-19 02:48:00,31.3,36.3,29.87,West,271,5.0,10.0,34,0.00,,,0.00,meteohub,2013-02-19 08:48:00,
2013-02-19 02:53:00,31.3,36.3,29.93,SW,224,4.0,11.0,34,0.00,,,0.00,meteohub,2013-02-19 08:53:00,
2013-02-19 02:58:00,31.1,36.3,29.93,WNW,283,8.0,11.0,34,0.00,,,0.00,meteohub,2013-02-19 08:58:00,
2013-02-19 03:03:00,31.1,36.1,29.93,NW,307,6.0,8.0,34,0.00,,,0.00,meteohub,2013-02-19 09:03:00,
2013-02-19 03:08:00,30.9,36.1,29.99,WSW,253,3.0,12.0,34,0.00,,,0.00,meteohub,2013-02-19 09:08:00,
2013-02-19 03:13:00,30.9,36.1,29.99,NW,307,3.0,12.0,34,0.00,,,0.00,meteohub,2013-02-19 09:13:00,
2013-02-19 03:18:00,30.7,36.0,30.01,WSW,256,2.0,8.0,34,0.00,,,0.00,meteohub,2013-02-19 09:18:00,
2013-02-19 03:24:00,30.7,36.0,30.01,SW,220,4.0,8.0,34,0.00,,,0.00,meteohub,2013-02-19 09:24:00,
2013-02-19 03:29:00,30.6,35.8,30.01,SW,221,5.0,8.0,34,0.00,,,0.00,meteohub,2013-02-19 09:29:00,
2013-02-19 03:34:00,30.4,35.8,30.04,South,186,3.0,8.0,34,0.00,,,0.00,meteohub,2013-02-19 09:34:00,
2013-02-19 03:39:00,30.2,35.6,30.04,West,268,9.0,9.0,34,0.00,,,0.00,meteohub,2013-02-19 09:39:00,
2013-02-19 03:44:00,30.0,35.4,30.04,East,90,4.0,9.0,34,0.00,,,0.00,meteohub,2013-02-19 09:44:00,
2013-02-19 03:49:00,30.0,35.4,30.07,WSW,249,6.0,9.0,34,0.00,,,0.00,meteohub,2013-02-19 09:49:00,
2013-02-19 03:54:00,29.8,35.4,30.07,WNW,300,3.0,9.0,34,0.00,,,0.00,meteohub,2013-02-19 09:54:00,
2013-02-19 03:59:00,29.8,35.2,30.07,WSW,242,3.0,11.0,34,0.00,,,0.00,meteohub,2013-02-19 09:59:00,
2013-02-19 04:04:00,29.7,35.2,30.13,SW,231,6.0,11.0,34,0.00,,,0.00,meteohub,2013-02-19 10:04:00,
2013-02-19 04:10:00,29.7,35.1,30.13,WNW,292,2.0,11.0,34,0.00,,,0.00,meteohub,2013-02-19 10:10:00,
2013-02-19 04:15:00,29.5,34.9,30.13,West,268,4.0,10.0,34,0.00,,,0.00,meteohub,2013-02-19 10:15:00,
2013-02-19 04:20:00,29.5,34.9,30.19,WSW,258,3.0,8.0,34,0.00,,,0.00,meteohub,2013-02-19 10:20:00,
2013-02-19 04:25:00,29.3,34.9,30.19,WSW,248,3.0,8.0,34,0.00,,,0.00,meteohub,2013-02-19 10:25:00,
2013-02-19 04:30:00,29.3,34.7,30.19,WSW,248,5.0,8.0,34,0.00,,,0.00,meteohub,2013-02-19 10:30:00,
2013-02-19 04:35:00,29.3,34.7,30.22,NW,308,3.0,8.0,34,0.00,,,0.00,meteohub,2013-02-19 10:35:00,
2013-02-19 04:41:00,29.1,34.7,30.22,WNW,298,5.0,8.0,34,0.00,,,0.00,meteohub,2013-02-19 10:41:00,
2013-02-19 04:46:00,28.9,34.7,30.22,South,180,3.0,8.0,34,0.00,,,0.00,meteohub,2013-02-19 10:46:00,
2013-02-19 04:51:00,28.9,34.5,30.25,SSW,199,6.0,8.0,34,0.00,,,0.00,meteohub,2013-02-19 10:51:00,
2013-02-19 04:56:00,28.9,34.5,30.25,SSW,212,4.0,10.0,34,0.00,,,0.00,meteohub,2013-02-19 10:56:00,
2013-02-19 05:01:00,28.9,34.3,30.25,West,266,4.0,10.0,34,0.00,,,0.00,meteohub,2013-02-19 11:01:00,
2013-02-19 05:06:00,28.9,34.3,30.34,West,261,4.0,11.0,34,0.00,,,0.00,meteohub,2013-02-19 11:06:00,
2013-02-19 05:11:00,28.8,34.2,30.34,NNW,338,3.0,11.0,34,0.00,,,0.00,meteohub,2013-02-19 11:11:00,
2013-02-19 05:16:00,28.8,34.2,30.34,WNW,298,4.0,11.0,34,0.00,,,0.00,meteohub,2013-02-19 11:16:00,
2013-02-19 05:21:00,28.6,34.0,30.43,West,265,3.0,8.0,34,0.00,,,0.00,meteohub,2013-02-19 11:21:00,
2013-02-19 05:27:00,28.6,34.0,30.43,WNW,287,4.0,8.0,34,0.00,,,0.00,meteohub,2013-02-19 11:27:00,
2013-02-19 05:32:00,28.6,34.0,30.43,WNW,299,6.0,11.0,34,0.00,,,0.00,meteohub,2013-02-19 11:32:00,
2013-02-19 05:37:00,28.6,33.8,30.46,West,278,4.0,11.0,34,0.00,,,0.00,meteohub,2013-02-19 11:37:00,
2013-02-19 05:42:00,28.6,33.8,30.46,SW,216,3.0,8.0,34,0.00,,,0.00,meteohub,2013-02-19 11:42:00,
2013-02-19 05:47:00,28.6,33.6,30.46,WNW,301,6.0,8.0,34,0.00,,,0.00,meteohub,2013-02-19 11:47:00,
2013-02-19 05:52:00,28.4,33.6,30.49,NW,317,7.0,8.0,34,0.00,,,0.00,meteohub,2013-02-19 11:52:00,
2013-02-19 05:57:00,28.4,33.4,30.49,NW,306,3.0,9.0,34,0.00,,,0.00,meteohub,2013-02-19 11:57:00,
2013-02-19 06:02:00,28.4,33.4,30.49,SW,226,5.0,9.0,34,0.00,,,0.00,meteohub,2013-02-19 12:02:00,
2013-02-19 06:07:00,28.2,33.4,30.55,WSW,252,3.0,10.0,34,0.00,,,0.00,meteohub,2013-02-19 12:07:00,
2013-02-19 06:12:00,28.2,33.4,30.55,North,353,6.0,10.0,34,0.00,,,0.00,meteohub,2013-02-19 12:12:00,
2013-02-19 06:18:00,28.0,33.4,30.55,West,259,4.0,10.0,34,0.00,,,0.00,meteohub,2013-02-19 12:18:00,
2013-02-19 06:23:00,28.0,33.3,30.64,WNW,299,6.0,9.0,34,0.00,,,0.00,meteohub,2013-02-19 12:23:00,
2013-02-19 06:28:00,28.0,33.3,30.64,WSW,245,5.0,10.0,34,0.00,,,0.00,meteohub,2013-02-19 12:28:00,
2013-02-19 06:33:00,28.0,33.4,30.64,WNW,302,4.0,11.0,34,0.00,,,0.00,meteohub,2013-02-19 12:33:00,
2013-02-19 06:38:00,27.9,34.3,30.64,NW,316,3.0,11.0,34,0.00,,,0.00,meteohub,2013-02-19 12:38:00,
2013-02-19 06:43:00,27.9,35.4,30.64,North,357,4.0,10.0,34,0.00,,,0.00,meteohub,2013-02-19 12:43:00,
2013-02-19 06:48:00,27.7,36.5,30.64,WNW,295,6.0,10.0,34,0.00,,,0.00,meteohub,2013-02-19 12:48:00,
2013-02-19 06:53:00,27.5,37.2,30.22,SSW,211,3.0,10.0,34,0.00,,,0.00,meteohub,2013-02-19 12:53:00,
2013-02-19 06:58:00,27.5,37.0,30.22,South,172,3.0,8.0,34,0.00,,,0.00,meteohub,2013-02-19 12:58:00,
2013-02-19 07:03:00,27.7,37.4,30.22,NW,305,5.0,8.0,34,0.00,,,0.00,meteohub,2013-02-19 13:03:00,
2013-02-19 07:09:00,27.9,37.6,30.13,SW,235,3.0,8.0,34,0.00,,,0.00,meteohub,2013-02-19 13:09:00,
2013-02-19 07:14:00,27.9,37.4,30.13,NNW,334,3.0,8.0,34,0.00,,,0.00,meteohub,2013-02-19 13:14:00,
2013-02-19 07:19:00,28.0,37.8,30.10,West,280,4.0,8.0,34,0.00,,,0.00,meteohub,2013-02-19 13:19:00,
2013-02-19 07:24:00,28.0,37.8,30.10,South,177,4.0,6.0,34,0.00,,,0.00,meteohub,2013-02-19 13:24:00,
2013-02-19 07:29:00,28.2,37.4,30.10,WSW,249,6.0,7.0,34,0.00,,,0.00,meteohub,2013-02-19 13:29:00,
2013-02-19 07:34:00,28.4,37.4,30.10,SE,137,5.0,11.0,34,0.00,,,0.00,meteohub,2013-02-19 13:34:00,
2013-02-19 07:39:00,28.4,37.6,30.10,South,183,8.0,11.0,34,0.00,,,0.00,meteohub,2013-02-19 13:39:00,
2013-02-19 07:44:00,28.4,37.4,30.10,West,267,3.0,11.0,34,0.00,,,0.00,meteohub,2013-02-19 13:44:00,
2013-02-19 07:49:00,28.4,37.6,30.13,West,279,5.0,13.0,34,0.00,,,0.00,meteohub,2013-02-19 13:49:00,
2013-02-19 07:55:00,28.4,36.9,30.13,NNW,335,4.0,14.0,33,0.00,,,0.00,meteohub,2013-02-19 13:55:00,
2013-02-19 08:00:00,28.6,36.7,30.13,WNW,302,6.0,14.0,33,0.00,,,0.00,meteohub,2013-02-19 14:00:00,
2013-02-19 08:05:00,28.6,36.9,30.10,West,276,6.0,11.0,33,0.00,,,0.00,meteohub,2013-02-19 14:05:00,
2013-02-19 08:10:00,28.6,36.9,30.10,SW,234,6.0,11.0,33,0.00,,,0.00,meteohub,2013-02-19 14:10:00,
2013-02-19 08:15:00,28.9,36.5,30.10,WNW,299,6.0,11.0,33,0.00,,,0.00,meteohub,2013-02-19 14:15:00,
2013-02-19 08:20:00,29.3,36.3,30.13,NNW,337,8.0,10.0,33,0.00,,,0.00,meteohub,2013-02-19 14:20:00,
2013-02-19 08:25:00,29.3,36.3,30.13,WNW,296,0.0,13.0,33,0.00,,,0.00,meteohub,2013-02-19 14:25:00,
2013-02-19 08:30:00,29.7,36.5,30.13,WNW,298,3.0,13.0,33,0.00,,,0.00,meteohub,2013-02-19 14:30:00,
2013-02-19 08:35:00,29.8,36.3,30.13,WSW,258,8.0,13.0,33,0.00,,,0.00,meteohub,2013-02-19 14:35:00,
2013-02-19 08:41:00,30.0,36.9,30.13,WNW,299,9.0,10.0,34,0.00,,,0.00,meteohub,2013-02-19 14:41:00,
2013-02-19 08:46:00,30.0,36.7,30.13,SW,233,4.0,10.0,34,0.00,,,0.00,meteohub,2013-02-19 14:46:00,
2013-02-19 08:51:00,30.2,36.5,30.25,West,267,4.0,10.0,34,0.00,,,0.00,meteohub,2013-02-19 14:51:00,
2013-02-19 08:56:00,30.2,36.7,30.25,NW,316,6.0,10.0,34,0.00,,,0.00,meteohub,2013-02-19 14:56:00,
2013-02-19 09:01:00,30.2,36.3,30.25,WNW,295,3.0,10.0,33,0.00,,,0.00,meteohub,2013-02-19 15:01:00,
2013-02-19 09:06:00,30.4,36.9,30.22,NW,322,4.0,10.0,34,0.00,,,0.00,meteohub,2013-02-19 15:06:00,
2013-02-19 09:11:00,30.6,36.7,30.22,WSW,254,6.0,10.0,34,0.00,,,0.00,meteohub,2013-02-19 15:11:00,
2013-02-19 09:16:00,30.9,36.5,30.22,NNW,327,4.0,8.0,34,0.00,,,0.00,meteohub,2013-02-19 15:16:00,
2013-02-19 09:21:00,31.1,36.3,30.25,WNW,298,5.0,10.0,34,0.00,,,0.00,meteohub,2013-02-19 15:21:00,
2013-02-19 09:26:00,31.3,36.3,30.25,NNW,337,9.0,10.0,34,0.00,,,0.00,meteohub,2013-02-19 15:26:00,
2013-02-19 09:31:00,31.5,36.1,30.25,SW,216,4.0,11.0,34,0.00,,,0.00,meteohub,2013-02-19 15:31:00,
2013-02-19 09:37:00,32.0,36.1,30.31,NW,306,5.0,11.0,34,0.00,,,0.00,meteohub,2013-02-19 15:37:00,
2013-02-19 09:42:00,32.2,36.1,30.31,NW,311,6.0,9.0,34,0.00,,,0.00,meteohub,2013-02-19 15:42:00,
2013-02-19 09:47:00,32.2,36.0,30.31,NNW,342,8.0,9.0,34,0.00,,,0.00,meteohub,2013-02-19 15:47:00,
2013-02-19 09:52:00,32.5,35.8,30.34,WSW,239,4.0,10.0,34,0.00,,,0.00,meteohub,2013-02-19 15:52:00,
2013-02-19 09:57:00,32.7,35.1,30.34,NW,309,0.0,10.0,33,0.00,,,0.00,meteohub,2013-02-19 15:57:00,
2013-02-19 10:02:00,32.5,35.8,30.34,NW,307,5.0,11.0,34,0.00,,,0.00,meteohub,2013-02-19 16:02:00,
2013-02-19 10:07:00,32.7,36.5,30.37,West,264,5.0,11.0,34,0.00,,,0.00,meteohub,2013-02-19 16:07:00,
2013-02-19 10:12:00,33.1,36.5,30.37,NW,322,4.0,11.0,33,0.00,,,0.00,meteohub,2013-02-19 16:12:00,
2013-02-19 10:17:00,33.6,36.9,30.37,WSW,254,7.0,9.0,33,0.00,,,0.00,meteohub,2013-02-19 16:17:00,
2013-02-19 10:22:00,33.1,36.7,30.16,WNW,292,6.0,9.0,33,0.00,,,0.00,meteohub,2013-02-19 16:22:00,
2013-02-19 10:27:00,33.3,36.5,30.16,NW,321,5.0,13.0,33,0.00,,,0.00,meteohub,2013-02-19 16:27:00,
2013-02-19 10:32:00,33.1,36.7,30.16,NNE,29,3.0,13.0,33,0.00,,,0.00,meteohub,2013-02-19 16:32:00,
2013-02-19 10:38:00,33.3,36.7,30.19,NNW,328,4.0,9.0,33,0.00,,,0.00,meteohub,2013-02-19 16:38:00,
2013-02-19 10:43:00,33.6,36.5,30.19,NW,319,3.0,15.0,33,0.00,,,0.00,meteohub,2013-02-19 16:43:00,
2013-02-19 10:48:00,34.0,36.3,30.19,NNW,335,9.0,15.0,33,0.00,,,0.00,meteohub,2013-02-19 16:48:00,
2013-02-19 10:53:00,34.2,36.3,30.25,North,357,5.0,12.0,33,0.00,,,0.00,meteohub,2013-02-19 16:53:00,
2013-02-19 10:58:00,34.7,36.3,30.25,WNW,292,6.0,12.0,33,0.00,,,0.00,meteohub,2013-02-19 16:58:00,
2013-02-19 11:03:00,34.9,36.3,30.25,West,266,6.0,10.0,33,0.00,,,0.00,meteohub,2013-02-19 17:03:00,
2013-02-19 11:08:00,34.7,36.3,30.25,SSW,213,0.0,9.0,33,0.00,,,0.00,meteohub,2013-02-19 17:08:00,
2013-02-19 11:13:00,35.1,36.3,30.25,West,274,6.0,9.0,33,0.00,,,0.00,meteohub,2013-02-19 17:13:00,
2013-02-19 11:18:00,35.1,36.3,30.22,SW,214,6.0,11.0,33,0.00,,,0.00,meteohub,2013-02-19 17:18:00,
2013-02-19 11:23:00,35.1,36.3,30.22,WSW,241,5.0,11.0,33,0.00,,,0.00,meteohub,2013-02-19 17:23:00,
2013-02-19 11:29:00,35.2,36.3,30.22,NNW,337,4.0,11.0,33,0.00,,,0.00,meteohub,2013-02-19 17:29:00,
2013-02-19 11:34:00,35.4,36.1,30.28,NW,320,8.0,9.0,33,0.00,,,0.00,meteohub,2013-02-19 17:34:00,
2013-02-19 11:39:00,35.6,36.0,30.28,NW,324,8.0,8.0,33,0.00,,,0.00,meteohub,2013-02-19 17:39:00,
2013-02-19 11:44:00,35.8,36.0,30.28,SW,232,4.0,9.0,33,0.00,,,0.00,meteohub,2013-02-19 17:44:00,
2013-02-19 11:49:00,35.8,36.0,30.31,NE,50,4.0,9.0,33,0.00,,,0.00,meteohub,2013-02-19 17:49:00,
2013-02-19 11:54:00,35.6,35.8,30.31,NNW,346,5.0,9.0,33,0.00,,,0.00,meteohub,2013-02-19 17:54:00,
2013-02-19 11:59:00,35.8,35.8,30.31,West,259,3.0,11.0,33,0.00,,,0.00,meteohub,2013-02-19 17:59:00,
2013-02-19 12:04:00,36.3,35.6,30.37,WNW,288,6.0,11.0,33,0.00,,,0.00,meteohub,2013-02-19 18:04:00,
2013-02-19 12:09:00,36.5,35.6,30.37,West,278,5.0,11.0,33,0.00,,,0.00,meteohub,2013-02-19 18:09:00,
2013-02-19 12:14:00,36.9,36.9,30.37,South,169,5.0,10.0,34,0.00,,,0.00,meteohub,2013-02-19 18:14:00,
2013-02-19 12:19:00,36.7,36.9,30.22,West,267,4.0,11.0,33,0.00,,,0.00,meteohub,2013-02-19 18:19:00,
2013-02-19 12:25:00,36.9,36.9,30.22,West,261,6.0,11.0,33,0.00,,,0.00,meteohub,2013-02-19 18:25:00,
2013-02-19 12:30:00,36.9,36.7,30.22,NW,305,8.0,11.0,33,0.00,,,0.00,meteohub,2013-02-19 18:30:00,
2013-02-19 12:35:00,36.9,36.5,30.25,NW,308,6.0,10.0,33,0.00,,,0.00,meteohub,2013-02-19 18:35:00,
2013-02-19 12:40:00,36.7,36.3,30.25,WSW,252,5.0,11.0,33,0.00,,,0.00,meteohub,2013-02-19 18:40:00,
2013-02-19 12:45:00,36.7,36.3,30.25,SSW,206,4.0,11.0,33,0.00,,,0.00,meteohub,2013-02-19 18:45:00,
2013-02-19 12:50:00,36.9,36.7,30.28,WSW,253,4.0,11.0,33,0.00,,,0.00,meteohub,2013-02-19 18:50:00,
2013-02-19 12:55:00,36.9,36.7,30.28,NW,320,5.0,11.0,33,0.00,,,0.00,meteohub,2013-02-19 18:55:00,
2013-02-19 13:00:00,36.9,36.7,30.28,NW,306,3.0,11.0,33,0.00,,,0.00,meteohub,2013-02-19 19:00:00,
2013-02-19 13:05:00,37.0,36.5,30.25,South,190,8.0,11.0,33,0.00,,,0.00,meteohub,2013-02-19 19:05:00,
2013-02-19 13:10:00,37.4,36.5,30.25,SW,217,4.0,11.0,33,0.00,,,0.00,meteohub,2013-02-19 19:10:00,
2013-02-19 13:16:00,37.6,36.9,30.25,SW,236,5.0,10.0,33,0.00,,,0.00,meteohub,2013-02-19 19:16:00,
2013-02-19 13:21:00,37.6,36.9,30.22,SW,215,5.0,10.0,33,0.00,,,0.00,meteohub,2013-02-19 19:21:00,
2013-02-19 13:26:00,37.4,36.7,30.22,SSW,208,5.0,11.0,33,0.00,,,0.00,meteohub,2013-02-19 19:26:00,
2013-02-19 13:31:00,37.4,36.7,30.22,SW,233,4.0,11.0,33,0.00,,,0.00,meteohub,2013-02-19 19:31:00,
2013-02-19 13:36:00,37.6,36.5,30.25,SW,234,8.0,11.0,33,0.00,,,0.00,meteohub,2013-02-19 19:36:00,
2013-02-19 13:41:00,37.6,36.5,30.25,NW,310,4.0,11.0,33,0.00,,,0.00,meteohub,2013-02-19 19:41:00,
2013-02-19 13:46:00,37.6,36.9,30.25,WNW,292,6.0,11.0,33,0.00,,,0.00,meteohub,2013-02-19 19:46:00,
2013-02-19 13:52:00,37.8,36.7,30.22,NW,310,5.0,11.0,33,0.00,,,0.00,meteohub,2013-02-19 19:52:00,
2013-02-19 13:57:00,37.8,36.7,30.22,WNW,285,3.0,11.0,33,0.00,,,0.00,meteohub,2013-02-19 19:57:00,
2013-02-19 14:02:00,37.8,36.5,30.22,NW,316,3.0,11.0,33,0.00,,,0.00,meteohub,2013-02-19 20:02:00,
2013-02-19 14:07:00,37.9,36.5,30.25,NW,312,8.0,11.0,33,0.00,,,0.00,meteohub,2013-02-19 20:07:00,
2013-02-19 14:12:00,37.9,36.5,30.25,WSW,254,6.0,11.0,33,0.00,,,0.00,meteohub,2013-02-19 20:12:00,
2013-02-19 14:17:00,37.8,36.3,30.25,NW,308,3.0,13.0,33,0.00,,,0.00,meteohub,2013-02-19 20:17:00,
2013-02-19 14:22:00,37.8,36.3,30.25,North,353,4.0,13.0,33,0.00,,,0.00,meteohub,2013-02-19 20:22:00,
2013-02-19 14:27:00,38.3,36.3,30.25,NW,320,3.0,11.0,33,0.00,,,0.00,meteohub,2013-02-19 20:27:00,
2013-02-19 14:32:00,38.5,36.3,30.25,NW,311,8.0,10.0,33,0.00,,,0.00,meteohub,2013-02-19 20:32:00,
2013-02-19 14:37:00,38.3,36.3,30.28,WSW,241,4.0,8.0,33,0.00,,,0.00,meteohub,2013-02-19 20:37:00,
2013-02-19 14:43:00,38.1,36.3,30.28,West,274,4.0,14.0,33,0.00,,,0.00,meteohub,2013-02-19 20:43:00,
2013-02-19 14:48:00,37.9,36.3,30.28,NNW,341,6.0,14.0,33,0.00,,,0.00,meteohub,2013-02-19 20:48:00,
2013-02-19 14:53:00,37.8,36.3,30.34,WNW,290,6.0,14.0,33,0.00,,,0.00,meteohub,2013-02-19 20:53:00,
2013-02-19 14:58:00,37.2,36.3,30.34,SSW,203,6.0,11.0,33,0.00,,,0.00,meteohub,2013-02-19 20:58:00,
2013-02-19 15:03:00,37.0,36.3,30.34,NNW,338,6.0,11.0,33,0.00,,,0.00,meteohub,2013-02-19 21:03:00,
2013-02-19 15:08:00,37.0,36.3,30.31,WNW,294,4.0,11.0,33,0.00,,,0.00,meteohub,2013-02-19 21:08:00,
2013-02-19 15:14:00,37.0,36.3,30.31,SSW,196,3.0,11.0,33,0.00,,,0.00,meteohub,2013-02-19 21:14:00,
2013-02-19 15:19:00,37.4,36.3,30.31,WNW,288,8.0,11.0,33,0.00,,,0.00,meteohub,2013-02-19 21:19:00,
2013-02-19 15:24:00,37.4,36.3,30.31,WNW,298,7.0,11.0,33,0.00,,,0.00,meteohub,2013-02-19 21:24:00,
2013-02-19 15:29:00,37.2,36.3,30.31,NNW,344,8.0,11.0,33,0.00,,,0.00,meteohub,2013-02-19 21:29:00,
2013-02-19 15:34:00,37.0,36.3,30.31,WSW,248,3.0,11.0,33,0.00,,,0.00,meteohub,2013-02-19 21:34:00,
2013-02-19 15:39:00,37.0,36.3,30.31,NW,307,8.0,11.0,33,0.00,,,0.00,meteohub,2013-02-19 21:39:00,
2013-02-19 15:44:00,36.9,36.5,30.31,WNW,301,11.0,11.0,33,0.00,,,0.00,meteohub,2013-02-19 21:44:00,
2013-02-19 15:50:00,37.0,36.5,30.34,SW,229,5.0,11.0,33,0.00,,,0.00,meteohub,2013-02-19 21:50:00,
2013-02-19 15:55:00,36.9,36.5,30.34,WSW,250,6.0,11.0,33,0.00,,,0.00,meteohub,2013-02-19 21:55:00,
2013-02-19 16:00:00,36.7,36.5,30.34,West,260,3.0,11.0,33,0.00,,,0.00,meteohub,2013-02-19 22:00:00,
2013-02-19 16:05:00,36.7,36.5,30.31,SSW,207,5.0,9.0,33,0.00,,,0.00,meteohub,2013-02-19 22:05:00,
2013-02-19 16:10:00,36.3,36.5,30.31,WSW,244,4.0,13.0,33,0.00,,,0.00,meteohub,2013-02-19 22:10:00,
2013-02-19 16:15:00,36.3,36.5,30.31,SSW,202,7.0,13.0,33,0.00,,,0.00,meteohub,2013-02-19 22:15:00,
2013-02-19 16:20:00,36.1,36.5,30.31,NW,313,6.0,13.0,33,0.00,,,0.00,meteohub,2013-02-19 22:20:00,
2013-02-19 16:25:00,36.1,36.3,30.31,WNW,295,6.0,11.0,33,0.00,,,0.00,meteohub,2013-02-19 22:25:00,
2013-02-19 16:30:00,36.3,36.3,30.31,NW,312,4.0,11.0,33,0.00,,,0.00,meteohub,2013-02-19 22:30:00,
2013-02-19 16:36:00,36.3,36.3,30.40,West,273,5.0,10.0,33,0.00,,,0.00,meteohub,2013-02-19 22:36:00,
2013-02-19 16:41:00,36.1,36.3,30.40,SW,214,9.0,10.0,33,0.00,,,0.00,meteohub,2013-02-19 22:41:00,
2013-02-19 16:46:00,35.8,36.3,30.40,West,274,3.0,10.0,33,0.00,,,0.00,meteohub,2013-02-19 22:46:00,
2013-02-19 16:51:00,35.8,36.3,30.37,NNW,328,8.0,9.0,33,0.00,,,0.00,meteohub,2013-02-19 22:51:00,
2013-02-19 16:56:00,35.6,36.3,30.37,WNW,299,6.0,9.0,33,0.00,,,0.00,meteohub,2013-02-19 22:56:00,
2013-02-19 17:01:00,35.2,36.3,30.37,SW,230,4.0,11.0,33,0.00,,,0.00,meteohub,2013-02-19 23:01:00,
2013-02-19 17:06:00,34.9,36.9,30.37,NW,317,5.0,11.0,34,0.00,,,0.00,meteohub,2013-02-19 23:06:00,
2013-02-19 17:11:00,34.5,36.9,30.37,NW,319,4.0,11.0,34,0.00,,,0.00,meteohub,2013-02-19 23:11:00,
2013-02-19 17:16:00,34.3,36.9,30.37,North,350,5.0,10.0,34,0.00,,,0.00,meteohub,2013-02-19 23:16:00,
2013-02-19 17:21:00,34.0,36.9,30.40,WSW,244,5.0,10.0,34,0.00,,,0.00,meteohub,2013-02-19 23:21:00,
2013-02-19 17:26:00,33.8,36.7,30.40,NNW,333,6.0,9.0,34,0.00,,,0.00,meteohub,2013-02-19 23:26:00,
2013-02-19 17:32:00,33.6,36.7,30.40,NE,35,4.0,9.0,34,0.00,,,0.00,meteohub,2013-02-19 23:32:00,
2013-02-19 17:37:00,33.3,36.5,30.46,West,273,4.0,9.0,34,0.00,,,0.00,meteohub,2013-02-19 23:37:00,
2013-02-19 17:42:00,33.3,36.5,30.46,SW,233,4.0,8.0,34,0.00,,,0.00,meteohub,2013-02-19 23:42:00,
2013-02-19 17:47:00,33.1,36.5,30.46,WNW,299,5.0,9.0,34,0.00,,,0.00,meteohub,2013-02-19 23:47:00,
2013-02-19 17:52:00,33.1,36.5,30.49,WSW,256,5.0,9.0,34,0.00,,,0.00,meteohub,2013-02-19 23:52:00,
2013-02-19 17:57:00,32.9,36.5,30.49,SSW,194,4.0,8.0,34,0.00,,,0.00,meteohub,2013-02-19 23:57:00,
2013-02-19 18:02:00,32.7,36.3,30.49,WSW,238,6.0,8.0,34,0.00,,,0.00,meteohub,2013-02-20 00:02:00,
2013-02-19 18:07:00,32.5,36.3,30.49,WNW,295,3.0,8.0,34,0.00,,,0.00,meteohub,2013-02-20 00:07:00,
2013-02-19 18:12:00,32.4,36.5,30.49,SSW,208,4.0,8.0,34,0.00,,,0.00,meteohub,2013-02-20 00:12:00,
2013-02-19 18:17:00,32.0,36.5,30.49,North,357,2.0,6.0,34,0.00,,,0.00,meteohub,2013-02-20 00:17:00,
2013-02-19 18:22:00,31.6,36.5,30.49,NW,306,0.0,6.0,34,0.00,,,0.00,meteohub,2013-02-20 00:22:00,
2013-02-19 18:28:00,31.1,37.4,30.49,NNW,332,3.0,5.0,35,0.00,,,0.00,meteohub,2013-02-20 00:28:00,
2013-02-19 18:33:00,30.9,39.0,30.49,North,357,0.0,6.0,36,0.00,,,0.00,meteohub,2013-02-20 00:33:00,
2013-02-19 18:38:00,30.6,39.0,30.40,NNW,330,5.0,6.0,36,0.00,,,0.00,meteohub,2013-02-20 00:38:00,
2013-02-19 18:43:00,30.6,39.0,30.40,North,353,5.0,6.0,36,0.00,,,0.00,meteohub,2013-02-20 00:43:00,
2013-02-19 18:48:00,30.6,38.8,30.40,North,357,4.0,6.0,36,0.00,,,0.00,meteohub,2013-02-20 00:48:00,
2013-02-19 18:53:00,30.4,38.1,30.40,NNW,334,4.0,8.0,35,0.00,,,0.00,meteohub,2013-02-20 00:53:00,
2013-02-19 18:58:00,30.2,38.1,30.40,NNW,333,4.0,8.0,35,0.00,,,0.00,meteohub,2013-02-20 00:58:00,
2013-02-19 19:03:00,30.2,38.3,30.34,NW,308,5.0,8.0,35,0.00,,,0.00,meteohub,2013-02-20 01:03:00,
2013-02-19 19:08:00,30.2,38.7,30.34,NNW,338,3.0,8.0,35,0.00,,,0.00,meteohub,2013-02-20 01:08:00,
2013-02-19 19:13:00,30.0,38.7,30.34,NW,311,4.0,8.0,35,0.00,,,0.00,meteohub,2013-02-20 01:13:00,
2013-02-19 19:19:00,29.8,38.5,30.34,NW,315,4.0,8.0,35,0.00,,,0.00,meteohub,2013-02-20 01:19:00,
2013-02-19 19:24:00,29.5,38.3,30.34,North,357,3.0,7.0,35,0.00,,,0.00,meteohub,2013-02-20 01:24:00,
2013-02-19 19:29:00,29.3,38.3,30.34,NW,313,4.0,7.0,35,0.00,,,0.00,meteohub,2013-02-20 01:29:00,
2013-02-19 19:34:00,28.9,38.3,30.37,North,2,5.0,8.0,35,0.00,,,0.00,meteohub,2013-02-20 01:34:00,
2013-02-19 19:39:00,28.6,38.5,30.37,North,0,4.0,8.0,35,0.00,,,0.00,meteohub,2013-02-20 01:39:00,
2013-02-19 19:44:00,28.6,38.5,30.37,NNW,348,4.0,7.0,35,0.00,,,0.00,meteohub,2013-02-20 01:44:00,
2013-02-19 19:49:00,28.6,37.6,30.43,NW,320,4.0,7.0,34,0.00,,,0.00,meteohub,2013-02-20 01:49:00,
2013-02-19 19:54:00,28.4,37.4,30.43,NNW,342,5.0,6.0,34,0.00,,,0.00,meteohub,2013-02-20 01:54:00,
2013-02-19 19:59:00,28.4,37.4,30.43,NNW,333,3.0,6.0,34,0.00,,,0.00,meteohub,2013-02-20 01:59:00,
2013-02-19 20:04:00,28.4,37.9,30.37,NW,315,3.0,6.0,34,0.00,,,0.00,meteohub,2013-02-20 02:04:00,
2013-02-19 20:09:00,28.2,37.9,30.37,NW,319,4.0,6.0,34,0.00,,,0.00,meteohub,2013-02-20 02:09:00,
2013-02-19 20:15:00,28.2,37.9,30.37,WNW,288,3.0,6.0,34,0.00,,,0.00,meteohub,2013-02-20 02:15:00,
2013-02-19 20:20:00,28.0,37.8,30.40,NW,314,3.0,6.0,34,0.00,,,0.00,meteohub,2013-02-20 02:20:00,
2013-02-19 20:25:00,28.0,38.3,30.40,North,353,4.0,6.0,34,0.00,,,0.00,meteohub,2013-02-20 02:25:00,
2013-02-19 20:30:00,27.9,38.1,30.40,NNW,334,3.0,6.0,34,0.00,,,0.00,meteohub,2013-02-20 02:30:00,
2013-02-19 20:35:00,27.9,37.9,30.34,North,8,3.0,6.0,34,0.00,,,0.00,meteohub,2013-02-20 02:35:00,
2013-02-19 20:40:00,27.7,38.3,30.34,NNW,329,3.0,5.0,34,0.00,,,0.00,meteohub,2013-02-20 02:40:00,
2013-02-19 20:45:00,27.5,38.5,30.34,North,2,4.0,5.0,34,0.00,,,0.00,meteohub,2013-02-20 02:45:00,
2013-02-19 20:50:00,27.3,38.3,30.34,NNW,342,2.0,5.0,34,0.00,,,0.00,meteohub,2013-02-20 02:50:00,
2013-02-19 20:55:00,27.1,37.9,30.34,NW,312,3.0,6.0,34,0.00,,,0.00,meteohub,2013-02-20 02:55:00,
2013-02-19 21:00:00,27.1,37.8,30.34,North,353,4.0,6.0,34,0.00,,,0.00,meteohub,2013-02-20 03:00:00,
2013-02-19 21:06:00,27.3,38.1,30.37,North,353,5.0,9.0,34,0.00,,,0.00,meteohub,2013-02-20 03:06:00,
2013-02-19 21:11:00,27.3,37.9,30.37,NNE,16,6.0,9.0,34,0.00,,,0.00,meteohub,2013-02-20 03:11:00,
2013-02-19 21:16:00,27.3,37.0,30.37,WNW,303,5.0,9.0,33,0.00,,,0.00,meteohub,2013-02-20 03:16:00,
2013-02-19 21:21:00,27.3,36.9,30.40,NW,322,5.0,8.0,33,0.00,,,0.00,meteohub,2013-02-20 03:21:00,
2013-02-19 21:26:00,27.1,36.7,30.40,WNW,293,4.0,8.0,33,0.00,,,0.00,meteohub,2013-02-20 03:26:00,
2013-02-19 21:31:00,27.0,36.5,30.40,NW,318,6.0,8.0,33,0.00,,,0.00,meteohub,2013-02-20 03:31:00,
2013-02-19 21:36:00,26.8,36.5,30.46,NW,310,0.0,8.0,33,0.00,,,0.00,meteohub,2013-02-20 03:36:00,
2013-02-19 21:41:00,26.8,36.3,30.46,WNW,300,6.0,8.0,33,0.00,,,0.00,meteohub,2013-02-20 03:41:00,
2013-02-19 21:46:00,26.8,36.3,30.46,NNW,341,5.0,8.0,33,0.00,,,0.00,meteohub,2013-02-20 03:46:00,
2013-02-19 21:51:00,26.8,36.3,30.55,North,0,5.0,6.0,33,0.00,,,0.00,meteohub,2013-02-20 03:51:00,
2013-02-19 21:56:00,26.6,36.9,30.55,NNW,337,6.0,6.0,34,0.00,,,0.00,meteohub,2013-02-20 03:56:00,
2013-02-19 22:02:00,26.6,36.3,30.55,NNW,333,3.0,8.0,33,0.00,,,0.00,meteohub,2013-02-20 04:02:00,
2013-02-19 22:07:00,26.6,36.3,30.55,North,5,4.0,8.0,33,0.00,,,0.00,meteohub,2013-02-20 04:07:00,
2013-02-19 22:12:00,26.4,36.9,30.55,North,357,4.0,8.0,34,0.00,,,0.00,meteohub,2013-02-20 04:12:00,
2013-02-19 22:17:00,26.4,36.9,30.55,North,353,4.0,8.0,34,0.00,,,0.00,meteohub,2013-02-20 04:17:00,
2013-02-19 22:22:00,26.2,36.9,30.55,NW,318,3.0,8.0,34,0.00,,,0.00,meteohub,2013-02-20 04:22:00,
2013-02-19 22:27:00,26.1,36.5,30.55,NW,314,3.0,8.0,33,0.00,,,0.00,meteohub,2013-02-20 04:27:00,
2013-02-19 22:32:00,26.1,36.3,30.55,NNW,339,3.0,6.0,33,0.00,,,0.00,meteohub,2013-02-20 04:32:00,
2013-02-19 22:37:00,25.9,36.3,30.52,NNW,341,3.0,6.0,33,0.00,,,0.00,meteohub,2013-02-20 04:37:00,
2013-02-19 22:42:00,25.9,36.5,30.52,NNW,332,0.0,6.0,33,0.00,,,0.00,meteohub,2013-02-20 04:42:00,
2013-02-19 22:47:00,25.7,36.5,30.52,NW,326,3.0,6.0,33,0.00,,,0.00,meteohub,2013-02-20 04:47:00,
2013-02-19 22:52:00,25.5,36.3,30.55,WNW,297,0.0,6.0,33,0.00,,,0.00,meteohub,2013-02-20 04:52:00,
2013-02-19 22:58:00,25.3,36.7,30.55,NNE,28,4.0,5.0,33,0.00,,,0.00,meteohub,2013-02-20 04:58:00,
2013-02-19 23:00:00,25.3,36.9,30.55,NNW,341,4.0,5.0,33,0.00,,,0.00,meteohub,2013-02-20 05:00:00,
2013-02-19 23:01:00,25.3,36.7,30.55,NNW,333,3.0,5.0,33,0.00,,,0.00,meteohub,2013-02-20 05:01:00,
2013-02-19 23:03:00,25.3,36.7,30.55,NW,307,3.0,5.0,33,0.00,,,0.00,meteohub,2013-02-20 05:03:00,
2013-02-19 23:08:00,25.3,36.5,30.52,NW,310,2.0,8.0,33,0.00,,,0.00,meteohub,2013-02-20 05:08:00,
2013-02-19 23:13:00,25.3,36.9,30.52,NNW,338,6.0,8.0,33,0.00,,,0.00,meteohub,2013-02-20 05:13:00,
2013-02-19 23:18:00,25.3,36.7,30.52,North,353,4.0,8.0,33,0.00,,,0.00,meteohub,2013-02-20 05:18:00,
2013-02-19 23:23:00,25.3,36.7,30.49,NW,313,4.0,8.0,33,0.00,,,0.00,meteohub,2013-02-20 05:23:00,
2013-02-19 23:28:00,25.3,37.0,30.49,NNW,344,3.0,8.0,33,0.00,,,0.00,meteohub,2013-02-20 05:28:00,
2013-02-19 23:33:00,25.2,36.9,30.49,NNW,337,0.0,8.0,33,0.00,,,0.00,meteohub,2013-02-20 05:33:00,
2013-02-19 23:38:00,25.0,36.5,30.49,NW,304,0.0,4.0,33,0.00,,,0.00,meteohub,2013-02-20 05:38:00,
2013-02-19 23:43:00,24.8,36.3,30.49,WNW,295,0.0,4.0,33,0.00,,,0.00,meteohub,2013-02-20 05:43:00,
2013-02-19 23:48:00,24.6,36.9,30.49,NW,305,4.0,5.0,33,0.00,,,0.00,meteohub,2013-02-20 05:48:00,
2013-02-19 23:54:00,24.4,36.9,30.49,NNW,331,3.0,5.0,33,0.00,,,0.00,meteohub,2013-02-20 05:54:00,
2013-02-19 23:59:00,24.4,36.7,30.49,WNW,293,3.0,6.0,33,0.00,,,0.00,meteohub,2013-02-20 05:59:00,